DELTA 1 DEB

Satellite information

Favourite Embed

Satellite Type and Status

DEBRISIN ORBIT

Key statistics

Satellite DELTA 1 DEB at a glance.

Uptime

17354

Days in orbit

Revolutions

≈ 14.0

Per day

Orbit

SSO

Sun Synchronous Orbit

Inclination

98.9

Latest

Satellite identification and parameters

Extended collection of information and parameters for DELTA 1 DEB.

Object identification

Identified? True

Debris? True

Object name: DELTA 1 DEB

International designator: 1978-026EL

Object number (NORAD): 12292

Object ID (CCSDS): 12292

Country: UNITED STATES OF AMERICA (US)

Current information (Y/N): Y

RCS size: SMALL

Orbital parameters

Period: 102.557 minutes

Inclination: 98.9171 deg

SMA: 7257.795 km

Apoapsis: 914.696 km

Periapsis: 844.623 km

RAAN: 355.9706 deg

Eccentricy: 0.00482739

Argument of periapsis: 313.7905 deg

Mean anomaly: 169.6916 deg

Mean motion: 14.04092579 rev/day

Mean motion (dot): 0.00000738 rev/day2

B* drag term: 0.00048883737 1/REarth

Two-line elements (TLE)

Creation date: Sept. 8, 2025, 3:16 a.m.

Reference frame: TEME

Reference center: EARTH

Epoch: Sept. 7, 2025, 8:03 p.m. UTC

TLE line 0: 0 DELTA 1 DEB

TLE line 1: 1 12292U 78026EL 25250.83556567 .00000738 00000-0 48884-3 0 9991

TLE line 2: 2 12292 98.9171 355.9706 0048274 313.7905 169.6916 14.04092579250603

Live tracking on map

Real-time ground track for satellite DELTA 1 DEB.

In-orbit conjunctions

A list of the most updated potential collisions computed for object DELTA 1 DEB.

Target Orbit TCA Probability of collision Miss distance Type
CZ-4B DEB SSO 2024-11-11 07:58:35 0.0001707848 131.0 (m) DEBRIS

Associated space launch

Earth observation satellite

DELTA 1 DEB was lifted into orbit during the mission ‘Delta 2910 | Landsat 3’, on board a Delta 2910 space rocket.

The launch took place on March 5, 1978, 5:54 p.m. from Space Launch Complex 2W.

For more information about the launch, click the button.

Launch to space Delta 2910 | Landsat 3
Delta 2910 | Landsat 3

Agency: N/A

Status: Launch Successful

Launch date: March 5, 1978, 5:54 p.m. UTC

Rocket: Delta 2910

Launch pad: Space Launch Complex 2W

Location: Vandenberg SFB, CA, USA

...

Latest news about this satellite

There are no fresh news available about this satellite. Check back as we update our databases every day.


Newsletter sign-up

Weekly statistics, charts and insights to help you stay on top of the space industry.